This is the latest recevied weather packets stored in our database for station/object KC3AWA. If no packets are shown the sender has not sent any weather packets the latest 10 day(s).
| Time | Temp. | Humidity | Pressure | Rain* | Wind** | Luminosity | Snow |
|---|---|---|---|---|---|---|---|
| 1777670023 | 5.56° C | 94% | 1012.5 hPa | 1.78 mm | - | 115 W/m² | - |
| 1777669720 | 5.56° C | 94% | 1012.2 hPa | 1.78 mm | - | 83 W/m² | - |
| 1777669417 | 5.56° C | 94% | 1012.5 hPa | 0 mm | - | 81 W/m² | - |
| 1777669113 | 5° C | 95% | 1012.2 hPa | 0 mm | - | 105 W/m² | - |
| 1777668810 | 5° C | 94% | 1012.5 hPa | 0 mm | - | 88 W/m² | - |
| 1777668507 | 5° C | 94% | 1012.4 hPa | 0 mm | - | 40 W/m² | - |
| 1777668204 | 5° C | 94% | 1012.3 hPa | 0 mm | - | 77 W/m² | - |
| 1777667900 | 5° C | 95% | 1012.5 hPa | 0 mm | - | 109 W/m² | - |
| 1777667597 | 5.56° C | 94% | 1012.4 hPa | 1.27 mm | - | 119 W/m² | - |
| 1777667294 | 5.56° C | 95% | 1012.5 hPa | 3.05 mm | - | 95 W/m² | - |
| 1777666991 | 5.56° C | 95% | 1012.4 hPa | 1.78 mm | - | 141 W/m² | - |
| 1777666688 | 5° C | 95% | 1012.3 hPa | 1.27 mm | - | 161 W/m² | - |
| 1777666384 | 5° C | 95% | 1012.6 hPa | 1.27 mm | - | 110 W/m² | - |
| 1777666081 | 5° C | 94% | 1012.6 hPa | 0 mm | - | 98 W/m² | - |
| 1777665778 | 5° C | 95% | 1012.6 hPa | 1.78 mm | - | 64 W/m² | - |
| 1777665476 | 5° C | 94% | 1012.5 hPa | 1.78 mm | - | 97 W/m² | - |
| 1777665171 | 5° C | 94% | 1012.4 hPa | 1.27 mm | - | 72 W/m² | - |
| 1777664868 | 5° C | 94% | 1012.7 hPa | 3.05 mm | - | 157 W/m² | - |
| 1777664564 | 5° C | 95% | 1012.6 hPa | 1.78 mm | - | 164 W/m² | - |
| 1777664260 | 5° C | 95% | 1012.7 hPa | 3.05 mm | - | 134 W/m² | - |
| 1777663959 | 5° C | 94% | 1012.7 hPa | 3.05 mm | - | 91 W/m² | - |
| 1777663656 | 5° C | 94% | 1012.7 hPa | 3.56 mm | - | 105 W/m² | - |
| 1777663353 | 5° C | 94% | 1012.8 hPa | 3.05 mm | - | 101 W/m² | - |
| 1777663050 | 5° C | 95% | 1012.7 hPa | 4.32 mm | - | 112 W/m² | - |
| 1777662747 | 5° C | 94% | 1012.4 hPa | 4.83 mm | - | 128 W/m² | - |
* Rain latest hour (hover to see other rain measurements)
** Current wind speed in m/s (hover to see current wind gust speed)